RH
44 42 40 38 37 36 35 35 36 37 37 36 35 34 32 30 28 26 24 23 22 22 23 25 27 30 33 35 37 38 40 41 42 43 43 43 43 44 43 43 41 40 39 38 36 35 34 33 32 31 30 29 29 29 30 31 31 32 32 33 34 35 35 36 36 35 35 35 35 35 36 37 39 40 42 45 46 47 46 45 46 49 54 59 62 64
44 42 40 37 36 35 35 35 35 36 37 36 36 34 33 30 27 25 23 22 22 23 24 26 29 32 34 36 38 40 41 42 43 43 43 44 44 44 43 42 41 40 38 37 36 35 34 33 32 30 29 29 29 29 30 31 32 33 34 35 36 36 36 37 37 36 36 36 36 36 37 38 40 42 44 47 48 48 48 46 47 50 54 60 63 65
44 42 39 38 36 35 34 34 35 35 36 37 36 35 33 30 27 24 23 23 23 24 26 28 31 34 36 38 39 41 42 43 43 44 44 44 44 44 43 42 41 39 38 36 35 34 33 32 31 31 30 29 29 29 30 31 32 33 34 36 37 38 38 38 38 37 37 37 37 38 38 39 41 42 44 45 47 48 48 48 48 49 52 58 62 65
45 43 40 38 37 36 34 34 34 35 36 37 37 36 34 30 27 25 24 24 25 26 28 31 33 36 38 39 40 41 43 43 44 44 45 45 44 44 43 42 40 38 36 35 34 33 32 32 31 30 30 29 29 29 30 31 32 33 35 36 38 39 39 38 38 38 38 38 38 39 40 41 42 44 46 48 49 50 50 50 49 49 52 57 61 64
45 43 41 39 38 36 35 35 35 35 36 37 37 36 34 31 28 26 25 26 27 28 30 33 35 37 39 40 41 42 43 44 44 45 45 45 44 43 42 40 38 36 35 34 33 33 33 32 31 30 30 29 29 29 30 31 32 34 36 37 38 39 39 39 39 39 39 39 40 41 42 43 44 47 49 51 52 53 54 53 52 52 53 55 58 62
45 44 42 41 39 37 36 35 35 36 37 38 38 37 36 32 30 28 27 27 29 30 33 35 37 39 40 41 42 43 44 45 45 45 45 44 43 42 40 38 36 35 34 34 33 33 33 32 31 30 30 30 29 30 30 32 33 35 37 38 39 39 39 39 40 40 40 41 42 42 43 45 46 48 51 53 53 54 54 54 53 53 52 50 51 55
46 45 43 42 40 38 37 37 36 36 38 39 39 39 37 34 32 30 29 29 31 33 35 37 39 40 41 42 43 44 45 45 45 45 44 43 41 40 38 36 35 34 34 34 33 33 33 32 31 30 30 30 30 30 31 33 34 36 38 39 39 40 40 40 40 41 42 42 43 44 45 46 48 50 51 53 53 54 53 53 52 52 52 50 49 51
46 45 43 42 41 39 39 37 37 37 38 40 41 41 39 36 34 32 31 31 33 35 38 39 40 41 42 43 44 45 46 46 45 44 42 41 40 38 37 35 34 34 33 33 33 33 32 31 31 31 31 30 31 31 32 34 36 37 39 40 40 40 41 41 42 42 43 44 45 45 47 48 50 51 53 53 54 54 54 53 52 51 52 52 52 54
47 46 44 42 41 41 40 39 38 38 39 41 42 43 42 39 36 34 33 33 35 37 40 42 42 43 43 44 45 46 47 46 45 43 42 41 39 38 36 35 34 34 33 33 33 32 31 31 31 31 30 30 31 31 33 34 37 39 40 41 41 41 42 42 43 43 44 45 46 47 48 49 51 52 54 54 55 55 54 52 51 50 50 52 57 61
49 47 45 43 42 42 42 40 39 38 40 42 44 45 44 42 39 37 35 35 37 39 42 44 45 45 45 45 46 46 46 46 45 43 42 40 38 37 36 35 34 33 33 32 32 31 31 31 30 30 30 30 30 31 33 35 37 40 41 41 42 42 43 43 44 45 45 46 47 48 50 51 52 53 54 55 56 56 56 54 53 51 50 51 56 61
50 48 46 44 43 42 42 41 40 40 42 44 46 47 47 44 42 39 38 38 39 41 44 45 46 46 46 46 46 46 46 46 45 43 41 39 37 36 35 35 34 33 32 31 30 30 30 30 30 30 30 30 31 32 34 36 38 40 42 42 43 43 44 45 45 46 47 47 48 50 51 53 54 56 57 57 58 59 59 57 56 54 53 53 54 57
51 49 48 45 44 44 43 43 43 43 44 47 49 50 49 45 42 40 40 40 42 43 46 46 47 47 47 47 47 47 46 46 45 42 40 37 36 35 35 34 33 32 31 30 30 30 30 30 30 30 30 31 31 32 34 36 38 40 42 43 44 44 45 46 47 47 48 49 50 51 53 55 56 57 59 59 60 60 61 59 58 57 56 56 57 58
52 50 48 47 46 45 46 46 46 46 47 49 50 51 49 46 43 41 41 42 44 45 47 48 48 48 47 47 47 47 47 46 44 42 39 36 35 34 34 34 33 31 31 30 30 30 30 30 31 31 30 31 31 32 34 36 38 41 43 44 45 45 46 47 48 48 49 50 51 52 53 55 55 56 57 57 58 59 59 58 59 59 59 59 59 60
52 50 49 47 46 46 47 48 49 49 50 50 51 51 50 48 45 44 44 44 45 46 48 49 49 49 48 47 47 47 47 46 44 41 39 36 35 34 34 34 33 32 31 31 31 31 31 31 32 31 31 31 31 33 34 37 39 42 44 45 46 46 47 47 48 49 50 51 52 53 53 54 54 54 55 56 56 57 56 56 57 58 59 59 59 59
52 51 49 48 46 46 47 48 49 50 51 51 52 53 53 52 50 48 47 47 47 47 48 49 49 49 48 47 47 47 47 46 44 41 39 36 35 34 35 34 33 32 31 31 31 32 32 32 32 32 32 32 32 33 35 38 40 43 44 45 46 47 47 48 48 49 51 52 52 53 54 54 54 54 54 55 56 56 55 55 55 55 55 55 55 54
51 50 48 47 46 45 46 48 49 50 51 53 55 57 58 56 53 50 49 48 47 48 49 50 50 50 49 47 47 48 47 45 44 42 40 37 35 34 34 34 33 32 31 31 32 32 33 33 33 33 33 33 33 34 36 39 41 44 45 46 47 47 48 48 49 50 51 52 53 53 53 53 53 53 54 54 54 55 56 58 59 57 55 54 54 53
51 49 47 46 45 45 46 47 49 51 53 55 58 60 60 57 54 50 48 48 48 49 50 50 51 51 50 48 47 47 47 45 44 42 40 38 35 34 34 34 33 32 30 31 32 33 34 34 34 34 34 33 34 35 37 40 42 45 46 47 47 48 48 49 50 51 52 52 53 53 52 52 52 53 54 57 59 60 61 61 61 60 61 62 62 61
50 48 46 45 45 45 46 49 51 53 55 59 61 62 60 55 51 49 48 48 49 50 50 51 51 51 51 50 49 47 46 45 44 43 41 38 35 34 33 33 33 32 31 31 32 33 34 35 35 35 35 35 35 36 38 40 43 46 47 48 48 48 48 49 50 51 52 52 52 52 51 51 52 53 54 59 62 62 62 62 61 62 64 65 66 65
49 47 46 45 45 46 48 50 53 55 58 61 63 61 58 53 50 49 49 49 50 51 52 52 52 51 51 50 48 47 46 46 45 43 41 38 35 33 32 32 32 31 30 31 32 33 35 35 35 36 36 36 36 37 38 41 44 47 48 49 49 49 49 49 50 51 52 52 51 51 51 51 53 54 55 58 60 61 61 62 63 64 64 64 62 60
48 47 45 45 46 48 51 52 54 57 61 62 61 59 56 53 52 51 50 51 52 53 53 53 52 51 49 49 48 48 47 47 46 44 41 38 35 32 31 31 31 30 30 31 32 34 36 36 37 37 37 37 37 37 38 41 44 47 49 49 49 49 49 50 50 51 51 51 50 50 50 51 53 54 55 56 57 57 58 59 61 61 61 59 56 54
48 47 46 47 49 52 55 55 56 58 62 62 61 59 57 54 53 52 52 53 54 55 54 53 51 49 48 48 49 49 49 48 46 44 41 38 35 32 30 30 30 30 30 31 33 35 37 37 38 38 39 38 38 38 39 41 43 46 48 49 49 49 50 50 51 51 51 50 50 49 50 51 53 54 55 55 56 56 56 56 57 57 58 56 55 55
49 48 48 50 52 54 55 56 57 60 63 63 61 59 57 55 54 54 54 55 55 55 54 51 48 47 48 49 50 50 50 48 46 43 41 39 35 31 29 30 31 31 31 32 34 35 37 38 38 39 40 40 39 39 38 40 43 45 48 49 49 49 50 50 51 51 50 49 49 49 50 51 52 53 54 54 55 55 55 56 57 58 59 60 63 64
49 49 51 53 55 57 57 59 61 63 65 64 61 59 56 55 54 54 55 55 55 54 51 48 47 47 49 51 52 51 49 47 45 44 42 39 35 31 29 30 31 32 32 33 35 36 37 37 38 40 41 41 40 39 38 39 41 44 47 49 49 50 50 50 51 50 49 48 48 48 50 51 52 53 53 53 53 54 55 57 58 58 59 63 67 68
50 51 54 57 59 61 62 63 65 67 67 65 62 59 57 55 53 53 54 54 53 51 48 48 50 52 54 55 55 52 49 47 45 44 43 40 36 32 29 30 32 32 32 34 35 36 37 38 39 40 42 42 41 39 38 39 41 44 46 48 49 50 50 51 51 50 48 47 47 48 49 50 51 52 52 52 52 53 55 56 56 56 58 61 64 66
53 54 57 60 62 64 66 67 68 69 68 65 63 60 57 54 53 52 52 52 51 51 52 55 58 60 60 59 56 52 49 47 45 44 43 40 37 33 30 31 33 33 33 34 35 36 37 38 39 41 42 42 41 40 38 38 40 42 44 47 49 50 50 51 50 49 48 47 47 48 49 50 50 50 51 51 51 51 51 51 52 52 54 56 58 61
57 58 60 62 64 66 67 69 70 70 68 65 62 59 56 54 52 52 51 51 52 55 60 63 65 64 61 56 53 51 49 47 45 43 42 41 38 34 31 32 33 34 34 34 35 37 38 38 39 41 42 42 41 40 39 38 38 40 42 45 48 50 51 51 50 49 48 47 47 48 49 49 50 50 50 51 51 51 51 51 50 51 52 54 56 58
60 61 61 63 65 67 69 71 71 70 68 65 62 59 56 54 53 52 50 52 57 63 68 69 68 64 59 55 52 51 49 46 44 42 42 41 39 36 32 32 33 34 34 35 36 37 38 39 40 41 42 42 42 41 39 37 37 38 40 43 46 48 51 51 50 49 47 47 47 48 49 49 50 50 50 50 51 51 51 51 51 51 52 54 55 57
62 63 63 65 67 69 71 73 73 71 69 66 63 60 56 54 53 53 54 59 64 69 72 72 71 68 62 57 53 50 48 45 42 41 42 42 40 37 33 33 34 35 35 36 36 37 38 39 40 41 42 43 43 42 40 38 36 36 37 40 43 47 50 50 50 48 47 47 47 48 49 49 49 50 50 50 50 50 51 51 52 52 53 54 55 57
63 64 65 66 69 71 74 75 74 72 70 67 64 61 58 55 55 57 62 67 70 73 74 74 73 70 65 58 54 50 47 43 41 41 42 42 40 37 34 34 35 36 37 37 36 36 37 39 40 41 42 43 43 43 41 38 36 34 34 37 41 45 48 49 49 48 47 47 47 48 48 49 49 49 49 49 50 50 51 51 52 52 53 54 55 58
62 63 64 65 68 71 74 75 74 72 70 68 65 63 60 57 58 62 66 68 71 73 75 74 73 69 64 59 55 51 47 42 41 41 43 42 40 37 35 36 37 38 38 38 38 37 36 38 39 41 43 44 44 44 43 39 36 34 33 35 39 43 46 48 48 48 47 46 47 47 48 48 49 49 49 49 49 50 51 51 52 52 53 54 56 61
60 60 61 63 66 69 70 71 71 69 67 66 64 63 61 59 59 60 59 61 65 68 70 70 68 65 61 59 57 53 46 42 41 41 43 43 41 39 37 38 38 38 39 41 41 40 38 38 38 40 43 44 45 45 43 40 37 34 33 34 37 41 45 47 48 48 47 47 47 47 48 48 49 49 49 49 49 50 50 51 52 52 53 54 58 63
59 60 62 65 67 68 69 68 67 66 64 62 61 60 60 58 57 55 54 55 56 58 60 61 61 60 58 58 56 53 47 42 40 41 43 43 42 40 39 39 39 39 40 42 43 43 42 40 39 40 42 44 45 45 44 41 38 35 32 33 35 39 43 46 47 48 47 47 47 47 47 48 49 49 49 50 50 50 51 51 52 52 53 56 61 66
60 62 65 67 69 69 68 67 66 65 64 63 62 61 60 58 56 53 52 51 51 52 54 56 57 57 57 55 53 50 46 42 40 41 43 43 43 42 40 40 40 40 40 42 43 44 44 43 42 41 42 44 45 45 45 42 38 35 33 32 34 37 41 44 47 48 47 47 46 46 46 47 48 49 50 50 51 51 51 52 52 53 53 58 63 68
63 66 69 71 71 70 69 67 66 66 65 65 65 65 64 61 57 54 51 50 50 50 53 55 56 57 56 54 52 49 45 42 40 41 43 44 44 43 42 41 41 41 42 43 44 45 45 45 44 43 43 44 45 45 45 43 39 36 33 32 33 36 39 43 46 47 47 47 46 46 46 47 48 48 49 51 51 52 52 53 53 53 55 61 66 69
67 70 72 73 73 72 70 68 67 67 67 68 68 68 67 65 61 57 53 51 51 51 53 54 56 56 56 54 52 50 45 42 41 41 43 44 45 44 43 42 42 43 44 44 45 45 46 46 45 45 45 45 45 45 45 43 40 37 33 32 33 35 38 42 45 47 48 47 47 47 46 47 47 48 49 51 52 52 52 53 54 54 56 62 67 71
70 73 74 75 75 74 72 70 69 69 69 70 70 70 69 67 63 59 55 53 52 52 54 55 55 55 55 55 53 50 46 42 41 42 43 45 46 45 44 43 43 44 46 46 46 47 47 46 46 46 46 46 46 45 45 43 41 38 34 32 32 33 36 39 43 47 48 48 48 48 48 47 47 48 49 51 52 52 53 54 54 55 58 63 67 70
72 74 75 75 75 74 72 71 71 71 71 71 71 71 70 68 64 61 57 55 53 53 54 54 54 54 54 54 53 51 47 44 42 42 43 45 46 46 45 45 45 46 47 48 48 48 48 48 47 47 47 47 47 46 45 43 41 38 35 33 32 33 34 37 41 46 49 49 50 49 49 48 48 48 49 51 52 53 54 54 55 56 59 62 65 68
73 74 74 74 74 74 73 73 72 72 72 72 72 71 71 69 66 62 59 56 55 54 53 54 54 54 54 55 54 52 48 46 44 44 44 46 47 47 47 46 46 47 49 50 50 50 50 49 49 48 47 47 47 47 47 44 41 38 35 33 32 32 33 35 39 43 48 50 50 51 50 50 49 49 50 52 53 53 54 55 56 57 60 61 63 65
74 74 74 74 74 74 74 73 73 73 73 73 73 72 72 70 67 64 60 57 56 54 54 53 54 54 55 55 54 53 50 48 46 45 45 46 47 47 48 47 48 48 50 51 52 51 51 51 51 50 49 48 48 47 47 45 42 39 35 33 32 32 32 32 36 40 46 49 51 51 51 50 50 50 51 52 53 54 55 56 57 59 60 61 62 63
74 74 74 75 75 74 74 74 74 74 74 75 74 74 73 70 67 64 60 58 56 54 54 54 54 54 55 55 55 53 51 49 48 47 46 47 47 47 48 48 49 49 50 51 52 52 52 53 52 52 51 50 49 48 47 46 43 40 35 33 32 32 31 31 33 37 43 47 50 52 52 51 51 51 52 53 54 55 56 57 58 59 60 62 63 64
74 75 75 75 75 75 74 75 76 76 76 76 75 75 73 70 67 64 60 58 56 54 54 53 53 54 54 55 54 53 51 50 48 47 47 46 46 47 48 49 50 50 52 52 52 52 53 54 54 53 52 51 50 49 48 46 44 41 37 34 32 31 31 30 32 35 40 45 49 52 53 52 52 51 52 53 54 55 56 57 58 59 60 62 64 66
75 75 76 77 77 77 77 77 78 77 77 77 76 75 73 70 67 63 60 58 56 55 54 53 53 54 55 54 53 52 50 49 47 47 46 46 47 48 49 49 50 51 52 53 53 53 53 54 55 55 54 53 51 50 48 47 44 42 38 35 32 31 30 29 30 32 38 43 48 51 53 53 52 52 52 53 54 55 56 57 58 59 60 61 63 65
75 77 79 79 79 78 78 78 78 78 77 77 76 75 72 69 66 63 61 58 57 55 54 54 54 55 56 55 54 51 49 47 46 46 46 47 47 48 49 49 50 51 52 53 53 53 53 55 56 56 55 54 52 51 49 47 45 43 39 35 33 31 31 28 28 31 36 41 46 50 53 53 53 52 52 53 53 54 55 57 57 58 59 60 62 64
76 79 81 80 79 79 79 78 78 78 78 77 76 74 72 70 67 64 61 58 57 55 55 55 55 56 57 56 54 52 49 46 45 45 46 47 48 48 49 50 50 51 52 54 54 54 54 55 56 56 56 55 53 51 50 48 46 43 39 35 33 31 31 29 29 31 34 39 44 48 52 53 53 53 52 52 53 54 55 56 57 58 58 59 60 62
78 80 81 80 80 79 79 79 79 78 78 77 76 75 73 70 67 64 61 59 57 56 55 55 56 56 56 55 53 52 49 47 46 46 46 47 48 49 50 50 51 51 52 53 54 55 56 56 57 57 56 55 54 52 50 49 47 44 40 35 32 30 28 28 29 31 34 38 42 46 50 52 53 53 52 52 53 54 55 56 57 58 57 57 58 59
78 80 80 80 80 80 80 79 79 79 78 78 76 75 72 70 67 64 62 59 57 56 55 55 55 56 56 54 53 51 49 47 47 46 46 47 48 49 50 51 51 52 52 53 54 55 57 57 58 58 57 56 54 52 50 49 48 44 40 36 32 30 28 28 29 30 33 37 41 45 48 51 52 53 52 52 52 53 54 55 57 57 57 56 55 56
78 79 80 80 80 80 80 80 80 79 79 78 76 74 72 70 67 65 62 60 58 56 55 54 54 55 55 54 53 51 49 47 47 47 46 47 48 49 50 51 52 52 53 53 54 55 57 58 59 60 59 57 54 52 49 48 47 45 41 37 34 31 29 28 28 30 33 36 40 44 47 49 51 52 52 51 51 51 52 54 55 56 56 55 55 54
81 81 81 81 81 81 81 80 80 80 79 78 76 74 72 69 67 65 63 60 58 56 55 54 54 54 54 53 52 50 49 47 47 47 47 48 49 50 51 52 52 52 53 53 54 55 57 59 60 61 60 58 55 53 49 47 46 45 42 39 35 32 30 28 28 28 31 34 38 42 46 49 50 51 51 50 50 49 50 52 54 55 55 54 54 54
81 81 81 81 81 81 81 81 80 80 79 77 75 73 71 69 67 65 63 61 59 57 55 54 54 53 53 52 51 49 48 47 46 46 47 48 50 51 52 52 53 53 53 54 54 55 57 58 60 61 61 59 57 54 50 48 46 45 43 41 37 34 31 28 27 27 30 33 36 40 43 46 49 51 52 50 49 48 49 50 52 54 54 54 53 53
80 80 80 80 81 81 81 80 80 80 78 77 75 73 71 69 67 65 63 61 59 57 55 54 53 53 53 51 50 48 47 45 45 45 46 48 50 52 53 54 54 54 55 54 54 55 56 57 58 60 60 60 58 56 52 49 47 46 45 42 38 35 31 29 27 28 29 32 34 36 39 42 46 50 52 51 49 48 48 49 51 53 54 54 53 52
78 79 79 80 80 80 80 80 80 79 78 76 74 72 71 69 67 65 63 61 60 58 56 55 53 53 52 50 49 47 44 43 43 44 45 47 50 53 55 55 56 56 55 54 54 55 56 57 58 58 59 60 59 57 54 51 49 47 45 43 39 36 32 30 28 28 29 31 32 34 37 41 45 49 52 51 50 49 48 48 50 51 53 53 52 51